Date String (YYYY-MM-DD hh:mm:ss) UTC,Instrument flags,Ambient pressure (hPa),Sample flow (lpm),Bypass flow (lpm),Sample temperature (°C),Ambient temperature (°C),ASC tube jacket temperature (°C),LED temperature (°C),Box temperature (°C),Sample RH (%),Span deviation,Mass concentration (μg/m³),Mass concentration (μg/m³),Mass concentration (μg/m³)
DateTimeUTC,F1_M11,P_M11,Q1_M11,Q2_M11,T1_M11,T2_M11,T3_M11,T4_M11,T5_M11,U1_M11,ZSPAN_M11,X0_M11,X2_M11,X1_M11
2023-02-24 21:00:00,,0824.6,5.00,0.00,22.4,20.5,00.0,31.3,23.9,08.6,0000.0,0001.60,0000.92,0000.69
2023-02-24 21:01:00,,0824.6,5.01,0.00,22.3,20.8,00.0,31.2,24.0,09.1,0000.0,0001.67,0000.95,0000.69
2023-02-24 21:02:00,,0824.6,4.97,0.00,22.4,22.0,00.0,31.2,24.3,08.3,0000.0,0001.51,0000.91,0000.69
2023-02-24 21:03:00,,0824.7,4.97,0.00,22.6,23.2,00.0,31.2,24.6,08.0,0000.0,0001.52,0000.92,0000.70
2023-02-24 21:04:00,,0824.7,4.99,0.00,22.7,23.3,00.0,31.3,24.7,08.3,0000.0,0001.62,0000.95,0000.70
2023-02-24 21:05:00,,0824.9,5.01,0.00,22.7,22.6,00.0,31.3,24.6,08.4,0000.0,0001.68,0000.98,0000.70
2023-02-24 21:06:00,,0824.9,5.01,0.00,22.7,22.1,00.0,31.3,24.5,08.5,0000.0,0001.64,0000.98,0000.71
2023-02-24 21:07:00,,0824.9,5.00,0.00,22.7,21.7,00.0,31.4,24.4,08.8,0000.0,0001.62,0000.97,0000.71
2023-02-24 21:08:00,,0824.8,5.02,0.00,22.6,21.4,00.0,31.4,24.3,08.5,0000.0,0001.51,0000.96,0000.71
2023-02-24 21:09:00,,0824.7,4.99,0.00,22.6,21.2,00.0,31.3,24.2,08.5,0000.0,0001.49,0000.96,0000.71
2023-02-24 21:10:00,,0824.9,5.01,0.00,22.6,21.0,00.0,31.3,24.1,08.6,0000.0,0001.47,0000.96,0000.71
2023-02-24 21:11:00,,0824.8,5.00,0.00,22.5,20.8,00.0,31.3,24.1,08.5,0000.0,0002.44,0000.96,0000.70
2023-02-24 21:12:00,,0824.9,5.01,0.00,22.5,20.7,00.0,31.3,24.1,07.7,0000.0,0002.81,0000.93,0000.71
2023-02-24 21:13:00,,0824.9,5.00,0.00,22.5,20.6,00.0,31.3,24.0,07.5,0000.0,0002.86,0000.95,0000.72
2023-02-24 21:14:00,,0824.8,5.00,0.00,22.4,20.5,00.0,31.3,24.0,07.7,0000.0,0002.85,0000.95,0000.72
2023-02-24 21:15:00,,0824.9,5.03,0.00,22.4,20.4,00.0,31.2,23.9,07.7,0000.0,0002.77,0000.93,0000.71
2023-02-24 21:16:00,,0824.9,4.97,0.00,22.3,20.4,00.0,31.2,23.9,07.8,0000.0,0002.70,0000.89,0000.71
2023-02-24 21:17:00,,0824.9,5.01,0.00,22.3,20.3,00.0,31.2,23.9,08.0,0000.0,0002.69,0000.90,0000.71
2023-02-24 21:18:00,,0824.9,5.00,0.00,22.3,21.3,00.0,31.1,24.1,07.8,0000.0,0002.71,0000.90,0000.70
2023-02-24 21:19:00,,0825.0,5.02,0.00,22.4,22.6,00.0,31.1,24.4,07.4,0000.0,0002.82,0000.93,0000.70
2023-02-24 21:20:00,,0824.9,4.89,0.00,22.6,23.4,00.0,31.2,24.6,08.2,0000.0,0002.81,0000.92,0000.70
2023-02-24 21:21:00,,0825.0,5.00,0.00,22.7,22.9,00.0,31.2,24.6,07.7,0000.0,0002.83,0000.91,0000.70
2023-02-24 21:22:00,,0824.9,5.00,0.00,22.6,22.3,00.0,31.3,24.5,07.5,0000.0,0002.02,0000.93,0000.70
2023-02-24 21:23:00,,0825.0,5.01,0.00,22.6,21.8,00.0,31.3,24.4,07.9,0000.0,0001.54,0000.94,0000.70
2023-02-24 21:24:00,,0825.0,4.98,0.00,22.6,21.5,00.0,31.3,24.3,08.3,0000.0,0001.48,0000.92,0000.69
2023-02-24 21:25:00,,0825.0,5.00,0.00,22.6,21.3,00.0,31.3,24.3,08.6,0000.0,0001.47,0000.92,0000.68
2023-02-24 21:26:00,,0825.1,5.00,0.00,22.6,21.1,00.0,31.3,24.2,08.2,0000.0,0001.44,0000.91,0000.68
2023-02-24 21:27:00,,0825.1,5.01,0.00,22.5,21.0,00.0,31.3,24.2,08.0,0000.0,0001.44,0000.90,0000.68
2023-02-24 21:28:00,,0825.1,4.99,0.00,22.5,20.8,00.0,31.3,24.2,08.2,0000.0,0001.40,0000.89,0000.68
2023-02-24 21:29:00,,0825.2,4.98,0.00,22.5,20.7,00.0,31.3,24.1,07.8,0000.0,0001.42,0000.91,0000.68
2023-02-24 21:30:00,,0825.1,4.99,0.00,22.5,20.7,00.0,31.3,24.1,08.5,0000.0,0001.33,0000.87,0000.68
2023-02-24 21:31:00,,0825.1,4.99,0.00,22.4,20.6,00.0,31.3,24.1,08.1,0000.0,0001.33,0000.88,0000.68
2023-02-24 21:32:00,,0825.1,5.00,0.00,22.4,20.6,00.0,31.2,24.1,08.2,0000.0,0001.43,0000.87,0000.67
2023-02-24 21:33:00,,0825.0,5.00,0.00,22.4,20.6,00.0,31.2,24.1,08.9,0000.0,0001.35,0000.86,0000.67
2023-02-24 21:34:00,,0825.0,5.00,0.00,22.4,20.6,00.0,31.2,24.0,09.2,0000.0,0001.32,0000.85,0000.67
2023-02-24 21:35:00,,0825.0,4.98,0.00,22.3,20.5,00.0,31.2,24.0,08.8,0000.0,0001.38,0000.88,0000.68
2023-02-24 21:36:00,,0825.1,4.98,0.00,22.3,20.5,00.0,31.2,24.0,08.3,0000.0,0001.42,0000.90,0000.69
2023-02-24 21:37:00,,0825.0,5.00,0.00,22.3,20.4,00.0,31.2,24.0,08.0,0000.0,0001.49,0000.91,0000.69
2023-02-24 21:38:00,,0824.9,5.00,0.00,22.3,20.5,00.0,31.1,24.0,08.3,0000.0,0001.53,0000.94,0000.70
2023-02-24 21:39:00,,0824.9,5.02,0.00,22.4,21.7,00.0,31.1,24.2,08.0,0000.0,0001.58,0000.95,0000.70
2023-02-24 21:40:00,,0825.0,5.00,0.00,22.5,23.0,00.0,31.1,24.5,08.6,0000.0,0001.59,0000.95,0000.70
2023-02-24 21:41:00,,0824.9,4.92,0.00,22.6,23.5,00.0,31.2,24.7,07.9,0000.0,0001.60,0000.96,0000.71
2023-02-24 21:42:00,,0824.9,5.01,0.00,22.7,23.0,00.0,31.2,24.7,07.3,0000.0,0001.64,0000.98,0000.71
2023-02-24 21:43:00,,0824.9,5.01,0.00,22.7,22.5,00.0,31.3,24.5,07.7,0000.0,0001.52,0000.98,0000.72
2023-02-24 21:44:00,,0825.0,5.01,0.00,22.7,22.0,00.0,31.3,24.5,07.7,0000.0,0001.49,0000.97,0000.72
2023-02-24 21:45:00,,0825.0,5.00,0.00,22.7,21.7,00.0,31.3,24.4,07.5,0000.0,0002.35,0000.96,0000.72
2023-02-24 21:46:00,,0825.1,4.98,0.00,22.6,21.4,00.0,31.3,24.3,07.4,0000.0,0002.56,0000.93,0000.72
2023-02-24 21:47:00,,0825.1,5.01,0.00,22.6,21.3,00.0,31.3,24.3,07.5,0000.0,0002.50,0000.91,0000.71
2023-02-24 21:48:00,,0825.0,4.98,0.00,22.6,21.2,00.0,31.3,24.3,08.4,0000.0,0002.48,0000.91,0000.72
2023-02-24 21:49:00,,0825.0,5.00,0.00,22.6,21.1,00.0,31.3,24.3,07.9,0000.0,0002.56,0000.94,0000.72
2023-02-24 21:50:00,,0825.1,5.04,0.00,22.6,21.1,00.0,31.3,24.3,08.1,0000.0,0002.66,0000.98,0000.73
2023-02-24 21:51:00,,0825.1,5.01,0.00,22.6,21.0,00.0,31.3,24.3,07.8,0000.0,0002.61,0000.97,0000.73
2023-02-24 21:52:00,,0825.1,5.01,0.00,22.5,20.9,00.0,31.3,24.2,08.1,0000.0,0002.62,0000.97,0000.73
2023-02-24 21:53:00,,0825.1,4.97,0.00,22.5,20.9,00.0,31.3,24.2,08.3,0000.0,0002.58,0000.95,0000.72
2023-02-24 21:54:00,,0825.1,4.97,0.00,22.5,20.9,00.0,31.3,24.2,07.9,0000.0,0002.62,0000.97,0000.72
2023-02-24 21:55:00,,0825.1,4.99,0.00,22.5,20.8,00.0,31.3,24.2,07.7,0000.0,0003.10,0000.98,0000.71
2023-02-24 21:56:00,,0825.1,5.02,0.00,22.5,20.8,00.0,31.3,24.2,08.1,0000.0,0002.77,0001.01,0000.71
2023-02-24 21:57:00,,0825.1,4.99,0.00,22.5,20.8,00.0,31.2,24.2,08.7,0000.0,0002.57,0001.04,0000.72
2023-02-24 21:58:00,,0825.1,5.01,0.00,22.4,20.7,00.0,31.2,24.1,08.7,0000.0,0002.57,0001.06,0000.73
2023-02-24 21:59:00,,0825.2,5.01,0.00,22.4,20.7,00.0,31.2,24.1,08.6,0000.0,0002.54,0001.04,0000.72
